Lexington Weather

Lexington, Massachusetts, USA

50°F
12/8/2022 1:43pm 
  • Lexington Conditions: Clear
  • Temperature: 50.2°F / 10.1°C 
  • Dew Point: 36.0°F 
  • Relative Humidity: 58
  • Wind: Wind from WNW WNW 5 mph, 10-min avg: 4 mph, gust: 11 mph
  • Barometer: 30.06 in Steady
  • Visibility: 10 miles
  • Rain Today: 0.00 in
  •   

Warning: Undefined variable $rc in /homepages/6/d276339138/htdocs/weather/20190804/ssi/nwsProduct.php on line 323

Warning: Undefined variable $rc in /homepages/6/d276339138/htdocs/weather/20190804/ssi/nwsProduct.php on line 325

Warning: Undefined variable $rc in /homepages/6/d276339138/htdocs/weather/20190804/ssi/nwsProduct.php on line 323

Warning: Undefined variable $rc in /homepages/6/d276339138/htdocs/weather/20190804/ssi/nwsProduct.php on line 325

Warning: Undefined variable $rc in /homepages/6/d276339138/htdocs/weather/20190804/ssi/nwsProduct.php on line 323

Warning: Undefined variable $rc in /homepages/6/d276339138/htdocs/weather/20190804/ssi/nwsProduct.php on line 325

Warning: Undefined variable $rc in /homepages/6/d276339138/htdocs/weather/20190804/ssi/nwsProduct.php on line 323

Warning: Undefined variable $rc in /homepages/6/d276339138/htdocs/weather/20190804/ssi/nwsProduct.php on line 325

Warning: Undefined variable $rc in /homepages/6/d276339138/htdocs/weather/20190804/ssi/nwsProduct.php on line 323

Warning: Undefined variable $rc in /homepages/6/d276339138/htdocs/weather/20190804/ssi/nwsProduct.php on line 325

Warning: Undefined variable $rc in /homepages/6/d276339138/htdocs/weather/20190804/ssi/nwsProduct.php on line 323

Warning: Undefined variable $rc in /homepages/6/d276339138/htdocs/weather/20190804/ssi/nwsProduct.php on line 325

Warning: Undefined variable $rc in /homepages/6/d276339138/htdocs/weather/20190804/ssi/nwsProduct.php on line 323

Warning: Undefined variable $rc in /homepages/6/d276339138/htdocs/weather/20190804/ssi/nwsProduct.php on line 325

Regional Weather Roundup
for Boston, MA

        
000
ASUS41 KBOX 070510
RWRBOX

REGIONAL WEATHER ROUNDUP
NATIONAL WEATHER SERVICE BOSTON/NORTON MA
1200 AM EST WED DEC 07 2022

NOTE:  "FAIR" INDICATES FEW OR NO CLOUDS BELOW 12,000 FEET WITH NO 
SIGNIFICANT WEATHER AND/OR OBSTRUCTIONS TO VISIBILITY.

MAZALL-070600-
EASTERN MASSACHUSETTS
  
CITY           SKY/WX    TMP DP  RH WIND       PRES   REMARKS
BOSTON         CLOUDY    50  47  89 SE9       30.38F                  
BEVERLY        LGT RAIN  50  48  93 SE9       30.37F                  
LAWRENCE       CLOUDY    50  47  89 SE7       30.39F                  
BEDFORD        CLOUDY    50  48  93 E9        30.35F                  
NORWOOD        CLOUDY    51  48  89 E6        30.36F                  
MARSHFIELD       N/A     50  46  87 SE7       30.37F                  
PLYMOUTH       CLOUDY    51  46  83 SE6       30.37S                  
TAUNTON          N/A    N/A N/A N/A MISG      30.35F                  
NEW BEDFORD    CLOUDY    51  49  92 E8        30.35F                  
$$

MAZALL-070600-
CAPE COD AND THE ISLANDS
  
CITY           SKY/WX    TMP DP  RH WIND       PRES   REMARKS
FALMOUTH       CLOUDY    50  46  87 SE14G23   30.37F                  
HYANNIS        CLOUDY    51  46  83 SE9G20    30.36F                  
CHATHAM        CLOUDY    53  47  79 SE9       30.40F                  
PROVINCETOWN   LGT RAIN  52  48  86 SE13      30.39F                  
NANTUCKET      MOCLDY    53  49  86 E13       30.38F                  
MARTHAS VNYRD  CLOUDY    53  48  83 SE13      30.37F                  
$$
 
MAZALL-070600-
CENTRAL AND WESTERN MASSACHUSETTS
  
CITY           SKY/WX    TMP DP  RH WIND       PRES   REMARKS
WORCESTER      LGT RAIN  49  46  90 SE8       30.32F FOG              
FITCHBURG      LGT RAIN  47  43  86 CALM      30.35F FOG              
ORANGE         RAIN      48  46  93 VRB3      30.32S FOG              
SPRINGFIELD    DRIZZLE   51  51  99 SE8       30.26F                  
WESTFIELD      LGT RAIN  46  46 100 CALM      30.27F FOG              
NORTH ADAMS    LGT RAIN  50  48  93 E12       30.23F FOG              
PITTSFIELD     LGT RAIN  50  49  96 SE10G21   30.22F FOG              
$$
 
RIZALL-070600-
RHODE ISLAND
  
CITY           SKY/WX    TMP DP  RH WIND       PRES   REMARKS
PROVIDENCE     LGT RAIN  51  48  89 SE10      30.35F                  
NEWPORT        LGT RAIN  51  48  89 SE15G25   30.33F                  
BLOCK ISLAND   CLOUDY    53  51  93 SE17G23   30.33F                  
SMITHFIELD     LGT RAIN  48  48 100 SE9       30.33F                  
WESTERLY       RAIN      53  52  96 E12       30.33S FOG              
$$
 
CTZALL-070600-
CONNECTICUT
  
CITY           SKY/WX    TMP DP  RH WIND       PRES   REMARKS
BRADLEY INTL   LGT RAIN  51  50  96 S3        30.27F FOG              
HARTFORD       LGT RAIN  56  52  86 S8        30.27F                  
BRIDGEPORT     HVY RAIN  54  53  97 SE9       30.26F FOG              
DANBURY        HVY RAIN  57  53  86 SE10G20   30.24F FOG              
GROTON         RAIN      56  52  86 E15       30.31F                  
NEW HAVEN      LGT RAIN  55  54  96 E12       30.27F FOG              
CHESTER        LGT RAIN  54  54 100 SE7G15    30.30S                  
MERIDEN        LGT RAIN  55  51  86 S10G20    30.27F                  
WILLIMANTIC    LGT RAIN  52  51  97 SE8       30.31F                  
OXFORD         LGT RAIN  52  52 100 SE15G21   30.26F                  
$$

MEZ002-015-021-024-NHZ003-005-008-011-012-014-VTZ005-008-070600-
NORTHERN NEW ENGLAND
  
CITY           SKY/WX    TMP DP  RH WIND       PRES   REMARKS
PORTLAND ME    CLOUDY    47  45  93 SE8       30.43F                  
BANGOR ME      LGT RAIN  44  39  82 SE7       30.50F                  
CONCORD NH     LGT RAIN  48  47  96 E10       30.37F                  
MANCHESTER NH  LGT RAIN  50  47  89 SE8       30.36F                  
NASHUA NH      LGT RAIN  49 N/A N/A SE6       30.37F                  
PORTSMOUTH NH  LGT RAIN  48  46  92 SE10      30.39F                  
JAFFREY NH     RAIN      48  45  89 VRB3      30.32F FOG              
KEENE NH       RAIN      48  46  93 VRB7        N/A                   
BURLINGTON VT  CLOUDY    51  43  74 SE10      30.19F                  
MT. WASHINGTON FRZ RAIN  27  27 100 S41         N/A  VSB 0   WCI   8  
$$

NYZ052-076-070600-
EASTERN NEW YORK
  
CITY           SKY/WX    TMP DP  RH WIND       PRES   REMARKS
ALBANY         DRIZZLE   53  50  89 SE8       30.19F FOG              
NEW YORK CITY  LGT RAIN  57  53  86 S20       30.21F FOG              
$$
 
ANZALL-070600-
MARINE OBSERVATIONS
  
STATION/POSITION TIME  TEMP    WIND        PRES    VSBY  WAVE
                       AIR SEA DIR/SP/G                  HT/PER
                 (UTC) (F)     (DEG/KT/KT) (MB)    (MI)  (FT/S)
BOSTON BUOY      0450      50  120/ 14/ 16 1029.1F         4/ 6
BUZZARDS BAY     0400   53     130/ 20/ 21 1028.3R
NANTUCKET SOUND  0450   51     120/ 14/ 16 1028.4F         2/ 4
MASS BAY-STELLWA 0304   51 50  130/ 16/ 17 1028.9S  1 7/8  4/ 5
ISLE OF SHOALS   0400   49     120/ 20/ 21 1028.6F
S OF BLOCK IS    0456      54                N/A           7/11
$$

......................KEY.........................
  SKY/WX - SKY CONDITION/PRESENT WEATHER
  TMP    - TEMPERATURE IN FAHRENHEIT
  DWPT   - DEWPOINT IN FAHRENHEIT
  RH     - RELATIVE HUMIDITY IN PERCENT
  WIND   - DIRECTION AND SPEED IN MPH
  PRES   - MEAN SEA LEVEL PRESSURE IN INCHES OF HG
  WCI    - WIND CHILL INDEX
  VSB    - VISIBILITY IN MILES
  HX     - HEAT INDEX
  TC     - TEMPERATURE IN CELSIUS
  VRB    - VARIABLE WIND DIRECTION
  N/A    - NOT AVAILABLE
  
      

Other recent Regional Weather Roundups

Thu Dec 8, 1:10pm

Thu Dec 8, 12:10pm

Thu Dec 8, 11:10am

Thu Dec 8, 10:10am

Thu Dec 8, 9:10am

Thu Dec 8, 8:10am

Thu Dec 8, 7:10am

Thu Dec 8, 6:10am

Thu Dec 8, 5:10am

Thu Dec 8, 4:10am

Thu Dec 8, 3:10am

Thu Dec 8, 2:10am

Thu Dec 8, 1:10am

Thu Dec 8, 12:10am

Wed Dec 7, 11:10pm

Wed Dec 7, 10:10pm

Wed Dec 7, 9:10pm

Wed Dec 7, 8:10pm

Wed Dec 7, 7:10pm

Wed Dec 7, 6:10pm

Wed Dec 7, 5:10pm

Wed Dec 7, 4:10pm

Wed Dec 7, 3:10pm

Wed Dec 7, 2:10pm

Wed Dec 7, 1:10pm

Wed Dec 7, 12:10pm

Wed Dec 7, 11:10am

Wed Dec 7, 10:10am

Wed Dec 7, 9:10am

Wed Dec 7, 8:10am

Wed Dec 7, 7:10am

Wed Dec 7, 6:10am

Wed Dec 7, 5:10am

Wed Dec 7, 4:10am

Wed Dec 7, 3:10am

Wed Dec 7, 2:10am

Wed Dec 7, 1:10am

Tue Dec 6, 11:10pm

Tue Dec 6, 10:10pm

Tue Dec 6, 9:10pm

Tue Dec 6, 8:10pm

Tue Dec 6, 7:10pm

Tue Dec 6, 6:10pm

Tue Dec 6, 5:10pm

Tue Dec 6, 4:10pm

Tue Dec 6, 3:10pm

Tue Dec 6, 2:10pm

Tue Dec 6, 1:10pm

Tue Dec 6, 12:10pm

Tue Dec 6, 11:10am

Tue Dec 6, 10:10am

Tue Dec 6, 9:10am

Tue Dec 6, 8:10am

Tue Dec 6, 7:10am

Tue Dec 6, 6:10am

Tue Dec 6, 5:10am

Tue Dec 6, 4:10am

Tue Dec 6, 3:10am

Tue Dec 6, 2:10am

Tue Dec 6, 1:10am

Tue Dec 6, 12:10am

Mon Dec 5, 11:10pm

Mon Dec 5, 10:10pm

Mon Dec 5, 9:10pm

Mon Dec 5, 8:10pm

Mon Dec 5, 7:10pm

Mon Dec 5, 6:10pm

Mon Dec 5, 5:10pm

Mon Dec 5, 4:10pm

Mon Dec 5, 3:10pm

Mon Dec 5, 2:10pm

Mon Dec 5, 1:10pm

Mon Dec 5, 12:10pm

Mon Dec 5, 11:10am

Mon Dec 5, 10:10am

Mon Dec 5, 9:10am

Mon Dec 5, 8:10am

Mon Dec 5, 7:10am

Mon Dec 5, 6:10am

Mon Dec 5, 5:10am

Mon Dec 5, 4:10am

Mon Dec 5, 3:10am

Mon Dec 5, 2:10am

Mon Dec 5, 1:10am

Mon Dec 5, 12:10am

Sun Dec 4, 11:10pm

Sun Dec 4, 10:10pm

Sun Dec 4, 9:10pm

Sun Dec 4, 8:10pm

Sun Dec 4, 7:10pm

Sun Dec 4, 6:10pm

Sun Dec 4, 5:10pm

Sun Dec 4, 4:10pm

Sun Dec 4, 3:10pm

Sun Dec 4, 2:10pm

Sun Dec 4, 1:10pm

Sun Dec 4, 12:10pm

Sun Dec 4, 11:10am

Sun Dec 4, 10:10am

Sun Dec 4, 9:10am

Sun Dec 4, 8:10am

Sun Dec 4, 7:10am

Sun Dec 4, 6:10am

Sun Dec 4, 5:10am

Sun Dec 4, 4:10am

Sun Dec 4, 3:10am

Sun Dec 4, 2:10am

Sun Dec 4, 1:10am

Sun Dec 4, 12:10am

Sat Dec 3, 11:10pm

Sat Dec 3, 10:10pm

Sat Dec 3, 9:10pm

Sat Dec 3, 8:10pm

Sat Dec 3, 7:10pm

Sat Dec 3, 6:10pm

Sat Dec 3, 5:10pm

Sat Dec 3, 4:10pm

Sat Dec 3, 3:10pm

Sat Dec 3, 2:10pm

Sat Dec 3, 1:10pm

Sat Dec 3, 12:10pm

Sat Dec 3, 11:10am

Sat Dec 3, 10:10am

Sat Dec 3, 9:10am

Sat Dec 3, 8:10am

Sat Dec 3, 7:10am

Sat Dec 3, 6:10am

Sat Dec 3, 5:10am

Sat Dec 3, 4:10am

Sat Dec 3, 3:10am

Sat Dec 3, 2:10am

Sat Dec 3, 1:10am

Sat Dec 3, 12:10am

Fri Dec 2, 11:10pm

Fri Dec 2, 10:10pm

Fri Dec 2, 9:10pm

Fri Dec 2, 8:10pm

Fri Dec 2, 7:10pm

Fri Dec 2, 6:10pm

Fri Dec 2, 5:10pm

Fri Dec 2, 4:10pm

Fri Dec 2, 3:10pm

Fri Dec 2, 2:10pm

Fri Dec 2, 1:10pm

Fri Dec 2, 12:10pm

Fri Dec 2, 11:10am

Fri Dec 2, 10:10am

Fri Dec 2, 9:10am

Fri Dec 2, 8:10am

Fri Dec 2, 7:10am

Fri Dec 2, 6:10am

Fri Dec 2, 5:10am

Fri Dec 2, 4:10am

Fri Dec 2, 3:10am

Fri Dec 2, 2:10am

Fri Dec 2, 1:10am

Fri Dec 2, 12:10am

Thu Dec 1, 11:10pm

Thu Dec 1, 10:10pm

Thu Dec 1, 9:10pm

Thu Dec 1, 8:10pm

Thu Dec 1, 7:10pm

Thu Dec 1, 6:10pm

Thu Dec 1, 5:10pm

Thu Dec 1, 4:10pm

Thu Dec 1, 3:10pm

Thu Dec 1, 2:10pm

Meta data:

ID: 3b39d023-3b11-49c5-b13a-c8dccb3a7d53
Link: https://api.weather.gov/products/3b39d023-3b11-49c5-b13a-c8dccb3a7d53